TimeCST,TemperatureF,Dew PointF,Humidity,Sea Level PressureIn,VisibilityMPH,Wind Direction,Wind SpeedMPH,Gust SpeedMPH,PrecipitationIn,Events,Conditions,WindDirDegrees,DateUTC
12:15 AM,18.5,14.2,83,30.14,10.0,NNE,10.4,-,N/A,,Overcast,20,2013-02-08 06:15:00
12:35 AM,18.1,14.0,84,30.14,10.0,NNE,12.7,-,N/A,,Overcast,20,2013-02-08 06:35:00
12:55 AM,17.8,13.3,83,30.15,10.0,North,15.0,18.4,N/A,,Overcast,10,2013-02-08 06:55:00
1:15 AM,17.4,13.1,83,30.15,10.0,North,15.0,19.6,N/A,,Overcast,10,2013-02-08 07:15:00
1:35 AM,16.9,12.7,84,30.15,10.0,North,15.0,-,N/A,,Overcast,10,2013-02-08 07:35:00
1:55 AM,16.5,12.2,83,30.15,10.0,North,13.8,20.7,N/A,,Overcast,10,2013-02-08 07:55:00
2:15 AM,15.6,11.3,83,30.16,10.0,North,19.6,23.0,N/A,,Overcast,360,2013-02-08 08:15:00
2:35 AM,15.3,11.3,84,30.17,10.0,North,16.1,-,N/A,,Overcast,360,2013-02-08 08:35:00
2:55 AM,14.4,10.2,84,30.17,10.0,North,15.0,19.6,N/A,,Overcast,360,2013-02-08 08:55:00
3:35 AM,10.8,7.3,86,30.16,10.0,North,9.2,-,N/A,,Clear,350,2013-02-08 09:35:00
3:55 AM,11.1,7.5,85,30.17,10.0,North,10.4,-,N/A,,Clear,350,2013-02-08 09:55:00
4:15 AM,10.6,7.0,85,30.17,10.0,North,10.4,-,N/A,,Clear,350,2013-02-08 10:15:00
4:35 AM,11.1,7.5,85,30.17,10.0,North,12.7,-,N/A,,Clear,10,2013-02-08 10:35:00
4:55 AM,10.0,6.6,86,30.18,10.0,North,11.5,-,N/A,,Clear,10,2013-02-08 10:55:00
5:15 AM,9.9,6.3,85,30.18,10.0,North,11.5,-,N/A,,Clear,10,2013-02-08 11:15:00
5:35 AM,9.7,6.3,86,30.19,10.0,North,10.4,-,N/A,,Clear,10,2013-02-08 11:35:00
5:55 AM,7.7,4.1,85,30.20,10.0,North,11.5,-,N/A,,Clear,360,2013-02-08 11:55:00
6:15 AM,6.8,3.7,87,30.20,10.0,North,9.2,-,N/A,,Clear,360,2013-02-08 12:15:00
6:35 AM,4.5,1.6,88,30.22,10.0,North,8.1,-,N/A,,Clear,360,2013-02-08 12:35:00
6:55 AM,4.8,2.1,89,30.24,10.0,North,5.8,-,N/A,,Clear,360,2013-02-08 12:55:00
7:15 AM,5.4,2.3,87,30.24,10.0,North,6.9,-,N/A,,Clear,10,2013-02-08 13:15:00
7:35 AM,5.5,2.7,88,30.26,10.0,NNW,4.6,-,N/A,,Clear,340,2013-02-08 13:35:00
7:55 AM,6.1,2.8,87,30.26,10.0,North,5.8,-,N/A,,Clear,360,2013-02-08 13:55:00
8:15 AM,5.9,2.8,87,30.27,10.0,North,5.8,-,N/A,,Clear,360,2013-02-08 14:15:00
8:35 AM,7.0,3.6,86,30.27,10.0,North,6.9,-,N/A,,Clear,10,2013-02-08 14:35:00
8:55 AM,8.1,4.5,85,30.27,10.0,North,6.9,-,N/A,,Clear,360,2013-02-08 14:55:00
9:15 AM,9.5,5.9,85,30.27,10.0,North,8.1,-,N/A,,Clear,10,2013-02-08 15:15:00
9:35 AM,11.3,6.8,82,30.27,10.0,North,9.2,-,N/A,,Clear,10,2013-02-08 15:35:00
9:55 AM,12.2,7.7,82,30.28,10.0,North,8.1,-,N/A,,Clear,10,2013-02-08 15:55:00
10:15 AM,13.1,8.6,82,30.29,10.0,North,9.2,-,N/A,,Clear,360,2013-02-08 16:15:00
10:35 AM,14.0,9.5,82,30.29,10.0,North,8.1,-,N/A,,Clear,360,2013-02-08 16:35:00
10:55 AM,15.4,10.4,80,30.29,10.0,North,4.6,-,N/A,,Clear,360,2013-02-08 16:55:00
11:15 AM,16.5,11.3,80,30.30,10.0,North,3.5,-,N/A,,Clear,350,2013-02-08 17:15:00
11:35 AM,17.6,11.8,78,30.29,10.0,Calm,Calm,-,N/A,,Clear,0,2013-02-08 17:35:00
12:15 PM,19.0,12.4,75,30.28,10.0,Calm,Calm,-,N/A,,Clear,0,2013-02-08 18:15:00
12:35 PM,19.2,12.0,74,30.28,10.0,NNW,4.6,-,N/A,,Clear,330,2013-02-08 18:35:00
12:55 PM,20.1,12.9,74,30.28,10.0,NNW,4.6,-,N/A,,Clear,330,2013-02-08 18:55:00
1:15 PM,20.7,13.1,73,30.28,10.0,Calm,Calm,-,N/A,,Clear,0,2013-02-08 19:15:00
1:35 PM,21.2,13.1,71,30.28,10.0,Calm,Calm,-,N/A,,Clear,0,2013-02-08 19:35:00
1:55 PM,21.9,13.3,69,30.28,10.0,Calm,Calm,-,N/A,,Clear,0,2013-02-08 19:55:00
2:15 PM,22.1,13.5,69,30.28,10.0,Calm,Calm,-,N/A,,Clear,0,2013-02-08 20:15:00
2:35 PM,21.4,14.4,74,30.28,10.0,Calm,Calm,-,N/A,,Clear,0,2013-02-08 20:35:00
2:55 PM,21.6,14.0,73,30.28,10.0,Calm,Calm,-,N/A,,Clear,0,2013-02-08 20:55:00
3:15 PM,20.8,13.5,73,30.28,10.0,Calm,Calm,-,N/A,,Clear,0,2013-02-08 21:15:00
3:35 PM,21.2,13.6,73,30.28,10.0,Calm,Calm,-,N/A,,Clear,0,2013-02-08 21:35:00
3:55 PM,21.7,12.7,68,30.28,10.0,Calm,Calm,-,N/A,,Clear,0,2013-02-08 21:55:00
4:15 PM,20.3,12.6,72,30.28,10.0,Calm,Calm,-,N/A,,Clear,0,2013-02-08 22:15:00
4:35 PM,19.9,11.5,70,30.28,10.0,Calm,Calm,-,N/A,,Clear,0,2013-02-08 22:35:00
4:55 PM,17.4,10.4,74,30.27,10.0,Calm,Calm,-,N/A,,Clear,0,2013-02-08 22:55:00
5:35 PM,9.9,5.0,81,30.27,10.0,Calm,Calm,-,N/A,,Clear,0,2013-02-08 23:35:00
5:55 PM,10.0,6.6,86,30.27,10.0,Calm,Calm,-,N/A,,Clear,0,2013-02-08 23:55:00
6:15 PM,9.1,5.9,87,30.27,10.0,Calm,Calm,-,N/A,,Clear,0,2013-02-09 00:15:00
6:35 PM,6.4,4.5,92,30.27,10.0,Calm,Calm,-,N/A,,Clear,0,2013-02-09 00:35:00
6:55 PM,3.7,1.0,89,30.28,10.0,Calm,Calm,-,N/A,,Clear,0,2013-02-09 00:55:00
7:15 PM,-0.2,-3.1,88,30.28,7.0,Calm,Calm,-,N/A,,Clear,0,2013-02-09 01:15:00
7:35 PM,0.7,-2.2,88,30.28,10.0,Calm,Calm,-,N/A,,Clear,0,2013-02-09 01:35:00
7:55 PM,-1.7,-4.9,86,30.29,10.0,Calm,Calm,-,N/A,,Clear,0,2013-02-09 01:55:00
8:15 PM,-0.9,-4.0,87,30.29,10.0,Calm,Calm,-,N/A,,Clear,0,2013-02-09 02:15:00
8:35 PM,3.2,0.9,90,30.29,5.0,Calm,Calm,-,N/A,,Clear,0,2013-02-09 02:35:00
8:55 PM,-0.6,-4.0,85,30.29,10.0,Calm,Calm,-,N/A,,Clear,0,2013-02-09 02:55:00
9:15 PM,-1.5,-4.7,86,30.30,10.0,Calm,Calm,-,N/A,,Clear,0,2013-02-09 03:15:00
9:35 PM,-0.9,-4.0,87,30.30,10.0,Calm,Calm,-,N/A,,Clear,0,2013-02-09 03:35:00
9:55 PM,-1.5,-4.9,85,30.30,10.0,Calm,Calm,-,N/A,,Clear,0,2013-02-09 03:55:00
10:15 PM,-0.9,-4.2,86,30.30,10.0,Calm,Calm,-,N/A,,Clear,0,2013-02-09 04:15:00
10:35 PM,-1.3,-4.4,87,30.29,10.0,ESE,4.6,-,N/A,,Clear,110,2013-02-09 04:35:00
10:55 PM,-2.9,-6.5,85,30.29,10.0,SE,3.5,-,N/A,,Clear,140,2013-02-09 04:55:00
11:15 PM,-2.0,-5.3,86,30.29,10.0,South,4.6,-,N/A,,Clear,170,2013-02-09 05:15:00
11:35 PM,-0.6,-3.6,87,30.29,10.0,South,3.5,-,N/A,,Clear,170,2013-02-09 05:35:00
11:55 PM,4.6,2.1,89,30.29,10.0,SSE,3.5,-,N/A,,Clear,150,2013-02-09 05:55:00